| time (UTC) | temp F | wind direction | speed MPH | gust MPH | rain 1hr in | rain 24hr in | rain mn in | humidity % | barometer mb |
| 20260503001517 | 73 | 23 | 1.0 | 1.0 | 0.00 | 0.00 | 0.00 | 46 | 1017.0 |
| 20260503000517 | 74 | 45 | 3.0 | 5.0 | 0.00 | 0.00 | 0.00 | 46 | 1017.0 |
| 20260502235517 | 74 | 315 | 1.0 | 2.0 | 0.00 | 0.00 | 0.00 | 44 | 1017.1 |
| 20260502234517 | 74 | 315 | 1.0 | 2.0 | 0.00 | 0.00 | 0.00 | 44 | 1017.1 |
| 20260502233517 | 74 | 315 | 1.0 | 2.0 | 0.00 | 0.00 | 0.00 | 43 | 1017.2 |
| 20260502232517 | 74 | 315 | 3.0 | 6.0 | 0.00 | 0.00 | 0.00 | 42 | 1017.3 |
| 20260502231517 | 75 | 338 | 3.0 | 7.0 | 0.00 | 0.00 | 0.00 | 42 | 1017.3 |
| 20260502230517 | 76 | 315 | 5.0 | 8.0 | 0.00 | 0.00 | 0.00 | 40 | 1017.3 |
| 20260502225517 | 77 | 0 | 3.0 | 5.0 | 0.00 | 0.00 | 0.00 | 40 | 1017.4 |
| 20260502224517 | 76 | 225 | 2.0 | 4.0 | 0.00 | 0.00 | 0.00 | 40 | 1017.5 |
| 20260502223517 | 76 | 270 | 3.0 | 6.0 | 0.00 | 0.00 | 0.00 | 41 | 1017.5 |
| 20260502222517 | 75 | 225 | 5.0 | 7.0 | 0.00 | 0.00 | 0.00 | 41 | 1017.5 |
| 20260502221537 | 76 | 270 | 4.0 | 8.0 | 0.00 | 0.00 | 0.00 | 41 | 1017.5 |
| 20260502220516 | 76 | 293 | 6.0 | 8.0 | 0.00 | 0.00 | 0.00 | 40 | 1017.6 |
| 20260502215537 | 76 | 0 | 6.0 | 9.0 | 0.00 | 0.00 | 0.00 | 39 | 1017.6 |
| 20260502214517 | 76 | 293 | 5.0 | 9.0 | 0.00 | 0.00 | 0.00 | 39 | 1017.9 |
| 20260502213516 | 75 | 0 | 5.0 | 6.0 | 0.00 | 0.00 | 0.00 | 39 | 1017.9 |
| 20260502212516 | 75 | 315 | 5.0 | 8.0 | 0.00 | 0.00 | 0.00 | 39 | 1018.0 |
| 20260502211516 | 76 | 293 | 6.0 | 8.0 | 0.00 | 0.00 | 0.00 | 38 | 1018.2 |
| 20260502210516 | 76 | 315 | 3.0 | 6.0 | 0.00 | 0.00 | 0.00 | 38 | 1018.4 |
| 20260502205516 | 75 | 270 | 2.0 | 4.0 | 0.00 | 0.00 | 0.00 | 38 | 1018.5 |
| 20260502204516 | 75 | 270 | 4.0 | 6.0 | 0.00 | 0.00 | 0.00 | 40 | 1018.7 |
| 20260502203516 | 76 | 338 | 6.0 | 9.0 | 0.00 | 0.00 | 0.00 | 38 | 1018.9 |
| 20260502202516 | 75 | 293 | 5.0 | 9.0 | 0.00 | 0.00 | 0.00 | 38 | 1018.9 |
| 20260502201516 | 75 | 315 | 2.0 | 4.0 | 0.00 | 0.00 | 0.00 | 38 | 1019.0 |
| 20260502200516 | 75 | 23 | 5.0 | 6.0 | 0.00 | 0.00 | 0.00 | 38 | 1019.1 |
| 20260502195536 | 75 | 293 | 7.0 | 10.0 | 0.00 | 0.00 | 0.00 | 40 | 1019.1 |
| 20260502194516 | 75 | 315 | 5.0 | 7.0 | 0.00 | 0.00 | 0.00 | 39 | 1019.3 |
| 20260502193516 | 75 | 270 | 5.0 | 14.0 | 0.00 | 0.00 | 0.00 | 37 | 1019.4 |
| 20260502192536 | 73 | 293 | 6.0 | 10.0 | 0.00 | 0.00 | 0.00 | 39 | 1019.5 |
| 20260502191516 | 73 | 248 | 2.0 | 4.0 | 0.00 | 0.00 | 0.00 | 37 | 1019.6 |
| 20260502190516 | 73 | 315 | 6.0 | 10.0 | 0.00 | 0.00 | 0.00 | 39 | 1019.8 |
| 20260502185516 | 73 | 293 | 8.0 | 12.0 | 0.00 | 0.00 | 0.00 | 37 | 1019.9 |
| 20260502184516 | 72 | 270 | 4.0 | 7.0 | 0.00 | 0.00 | 0.00 | 35 | 1019.9 |
| 20260502183516 | 72 | 270 | 4.0 | 8.0 | 0.00 | 0.00 | 0.00 | 35 | 1020.1 |
| 20260502182516 | 73 | 0.0 | 2.0 | 0.00 | 0.00 | 0.00 | 33 | 1020.2 | |
| 20260502181516 | 72 | 315 | 7.0 | 12.0 | 0.00 | 0.00 | 0.00 | 34 | 1020.4 |
| 20260502180516 | 72 | 0.0 | 2.0 | 0.00 | 0.00 | 0.00 | 34 | 1020.7 | |
| 20260502170516 | 69 | 225 | 2.0 | 2.0 | 0.00 | 0.00 | 0.00 | 41 | 1021.1 |
| 20260502163516 | 69 | 315 | 6.0 | 7.0 | 0.00 | 0.00 | 0.00 | 41 | 1021.2 |
| 20260502162516 | 68 | 293 | 3.0 | 5.0 | 0.00 | 0.00 | 0.00 | 39 | 1021.2 |
| 20260502161516 | 68 | 315 | 2.0 | 5.0 | 0.00 | 0.00 | 0.00 | 38 | 1021.0 |
| 20260502160516 | 68 | 0.0 | 1.0 | 0.00 | 0.00 | 0.00 | 41 | 1021.1 | |
| 20260502151516 | 65 | 23 | 2.0 | 4.0 | 0.00 | 0.00 | 0.00 | 50 | 1020.9 |
| 20260502150515 | 64 | 0.0 | 0.0 | 0.00 | 0.00 | 0.00 | 50 | 1020.9 | |
| 20260502130515 | 56 | 315 | 4.0 | 6.0 | 0.00 | 0.00 | 0.00 | 73 | 1019.9 |
| 20260502123515 | 55 | 315 | 3.0 | 6.0 | 0.00 | 0.00 | 0.00 | 77 | 1019.6 |
| 20260502122515 | 54 | 315 | 3.0 | 5.0 | 0.00 | 0.00 | 0.00 | 79 | 1019.4 |
| 20260502121515 | 53 | 315 | 3.0 | 4.0 | 0.00 | 0.00 | 0.00 | 79 | 1019.3 |
| 20260502120517 | 53 | 315 | 1.0 | 2.0 | 0.00 | 0.00 | 0.00 | 80 | 1019.1 |
| 20260502115517 | 52 | 338 | 1.0 | 2.0 | 0.00 | 0.00 | 0.00 | 80 | 1018.8 |
| 20260502114517 | 53 | 0.0 | 1.0 | 0.00 | 0.00 | 0.00 | 79 | 1018.7 | |
| 20260502113535 | 53 | 0.0 | 0.0 | 0.00 | 0.00 | 0.00 | 77 | 1018.7 | |
| 20260502112537 | 53 | 0.0 | 0.0 | 0.00 | 0.00 | 0.00 | 74 | 1018.7 | |
| 20260502111517 | 53 | 0.0 | 0.0 | 0.00 | 0.00 | 0.00 | 71 | 1018.6 | |
| 20260502110517 | 54 | 0.0 | 0.0 | 0.00 | 0.00 | 0.00 | 69 | 1018.4 | |
| 20260502105517 | 53 | 338 | 1.0 | 2.0 | 0.00 | 0.00 | 0.00 | 67 | 1018.1 |
| 20260502104537 | 53 | 338 | 2.0 | 2.0 | 0.00 | 0.00 | 0.00 | 67 | 1018.0 |
| 20260502103517 | 53 | 0.0 | 0.0 | 0.00 | 0.00 | 0.00 | 68 | 1018.0 | |
| 20260502102537 | 52 | 0.0 | 0.0 | 0.00 | 0.00 | 0.00 | 67 | 1018.0 | |
| 20260502101517 | 53 | 0.0 | 0.0 | 0.00 | 0.00 | 0.00 | 67 | 1018.0 | |
| 20260502100517 | 53 | 0.0 | 2.0 | 0.00 | 0.00 | 0.00 | 67 | 1018.0 | |
| 20260502090517 | 53 | 0.0 | 0.0 | 0.00 | 0.00 | 0.00 | 67 | 1017.5 | |
| 20260502071516 | 57 | 0.0 | 1.0 | 0.00 | 0.00 | 0.00 | 59 | 1017.8 | |
| 20260502070517 | 57 | 0 | 1.0 | 2.0 | 0.00 | 0.00 | 0.00 | 59 | 1017.8 |
| 20260502065516 | 57 | 0 | 2.0 | 4.0 | 0.00 | 0.00 | 0.00 | 59 | 1017.9 |
| 20260502064517 | 57 | 0.0 | 2.0 | 0.00 | 0.00 | 0.00 | 59 | 1017.9 | |
| 20260502063516 | 57 | 0 | 1.0 | 3.0 | 0.00 | 0.00 | 0.00 | 59 | 1017.9 |
| 20260502062517 | 58 | 0 | 1.0 | 2.0 | 0.00 | 0.00 | 0.00 | 58 | 1017.9 |
| 20260502061516 | 58 | 0 | 1.0 | 2.0 | 0.00 | 0.00 | 0.00 | 59 | 1017.9 |
| 20260502060516 | 58 | 0 | 1.0 | 2.0 | 0.00 | 0.00 | 0.00 | 60 | 1017.8 |
| 20260502055517 | 57 | 0 | 1.0 | 3.0 | 0.00 | 0.00 | 0.00 | 62 | 1017.9 |
| 20260502054516 | 58 | 0.0 | 1.0 | 0.00 | 0.00 | 0.00 | 62 | 1018.1 | |
| 20260502053516 | 58 | 0.0 | 2.0 | 0.00 | 0.00 | 0.00 | 61 | 1018.0 | |
| 20260502052556 | 58 | 0 | 1.0 | 3.0 | 0.00 | 0.00 | 0.00 | 62 | 1018.1 |
| 20260502051516 | 59 | 0.0 | 1.0 | 0.00 | 0.00 | 0.00 | 61 | 1018.0 | |
| 20260502050516 | 59 | 0 | 2.0 | 4.0 | 0.00 | 0.00 | 0.00 | 62 | 1017.9 |
| 20260502045516 | 59 | 0 | 2.0 | 5.0 | 0.00 | 0.00 | 0.00 | 62 | 1017.8 |
| 20260502044516 | 60 | 23 | 1.0 | 4.0 | 0.00 | 0.00 | 0.00 | 62 | 1017.8 |
| 20260502043516 | 60 | 23 | 4.0 | 5.0 | 0.00 | 0.00 | 0.00 | 62 | 1017.7 |
| 20260502042516 | 60 | 45 | 2.0 | 4.0 | 0.00 | 0.00 | 0.00 | 62 | 1017.8 |
| 20260502041516 | 60 | 0 | 3.0 | 5.0 | 0.00 | 0.00 | 0.00 | 62 | 1017.8 |
| 20260502040516 | 61 | 0 | 2.0 | 4.0 | 0.00 | 0.00 | 0.00 | 63 | 1017.7 |
| 20260502035516 | 61 | 23 | 3.0 | 5.0 | 0.00 | 0.00 | 0.00 | 63 | 1017.7 |
| 20260502034516 | 61 | 45 | 1.0 | 2.0 | 0.00 | 0.00 | 0.00 | 63 | 1017.7 |
| 20260502033516 | 62 | 45 | 1.0 | 1.0 | 0.00 | 0.00 | 0.00 | 63 | 1017.6 |
| 20260502032516 | 62 | 45 | 3.0 | 5.0 | 0.00 | 0.00 | 0.00 | 63 | 1017.6 |
| 20260502031515 | 62 | 0.0 | 1.0 | 0.00 | 0.00 | 0.00 | 63 | 1017.5 | |
| 20260502030515 | 63 | 68 | 2.0 | 4.0 | 0.00 | 0.00 | 0.00 | 62 | 1017.5 |
| 20260502025516 | 63 | 45 | 2.0 | 4.0 | 0.00 | 0.00 | 0.00 | 62 | 1017.4 |
| 20260502024516 | 63 | 45 | 2.0 | 5.0 | 0.00 | 0.00 | 0.00 | 62 | 1017.3 |
| 20260502023515 | 63 | 68 | 3.0 | 5.0 | 0.00 | 0.00 | 0.00 | 61 | 1017.1 |
| 20260502022516 | 64 | 68 | 3.0 | 4.0 | 0.00 | 0.00 | 0.00 | 62 | 1016.9 |
| 20260502021515 | 64 | 90 | 2.0 | 4.0 | 0.00 | 0.00 | 0.00 | 62 | 1016.7 |
| 20260502020515 | 64 | 90 | 1.0 | 2.0 | 0.00 | 0.00 | 0.00 | 62 | 1016.6 |
| 20260502015515 | 64 | 68 | 3.0 | 5.0 | 0.00 | 0.00 | 0.00 | 62 | 1016.4 |
| 20260502014516 | 64 | 45 | 1.0 | 3.0 | 0.00 | 0.00 | 0.00 | 63 | 1016.3 |
| 20260502013515 | 65 | 68 | 1.0 | 2.0 | 0.00 | 0.00 | 0.00 | 63 | 1016.1 |
| 20260502012516 | 65 | 68 | 1.0 | 2.0 | 0.00 | 0.00 | 0.00 | 63 | 1016.0 |
| 20260502011516 | 65 | 68 | 1.0 | 2.0 | 0.00 | 0.00 | 0.00 | 63 | 1015.8 |
| 20260502010516 | 65 | 23 | 2.0 | 4.0 | 0.00 | 0.00 | 0.00 | 63 | 1015.5 |
| 20260502005515 | 66 | 68 | 4.0 | 5.0 | 0.00 | 0.00 | 0.00 | 61 | 1015.4 |
| 20260502004515 | 66 | 23 | 6.0 | 8.0 | 0.00 | 0.00 | 0.00 | 61 | 1015.1 |
| 20260502003515 | 65 | 0 | 2.0 | 6.0 | 0.00 | 0.00 | 0.00 | 64 | 1015.0 |
| 20260502002515 | 65 | 338 | 1.0 | 4.0 | 0.00 | 0.00 | 0.00 | 65 | 1014.9 |